User: anonymous   Login
Location: Unspecified
(0.0000°N, 0.0000°E)
Time: 09:20:08
(UTC+00:00)
Language:

MICROSCOPE - Orbit

View from above orbital plane
View from above orbital plane
View from above satellite
View from above satellite

Ground track
Ground track

The orbit data is extracted from the following two-line orbital elements,

1 41457U 16025B   18018.46508177 -.00000025 +00000-0 +44861-5 0  9997
2 41457 098.2364 026.6392 0001080 051.1662 308.9631 14.53959163091908
Epoch (UTC): 18 January 2018 11:09:43
Eccentricity: 0.0001080
inclination: 98.2364°
perigee height: 712 km
apogee height: 713 km
right ascension of ascending node: 26.6392°
argument of perigee: 51.1662°
revolutions per day: 14.53959163
mean anomaly at epoch: 308.9631°
orbit number at epoch: 9190

The dashed part of the orbit path shows where the satellite is in the earth's shadow,  

DLR